[[{"header":{"parameterUnit":"m.s-1","parameterCategory":1,"la1":30.2991,"la2":30.254,"lo1":-89.0895,"lo2":-89.0444,"dy":0.0017,"dx":0.0017,"nx":28,"ny":28,"refTime":"2023-08-10T09:00:00:Z","depth":0,"parameterNumber":2,"parameterNumberName":"U-component_of_WINDS"},"data":[0,0,0,0,0,0,0,0,0,0,0,0,0,0,0,0,0,0,0,0,0,0,0,0,0,0,0,0,0,0,0,0,0,0,0,0,0,0,0,0,0,0,0,0,0,0,0,0,0,0,0,0,0,0,0,0,0,0,3.5537,3.5537,0,3.559,3.5591,3.5592,3.5599,3.5598,3.5598,3.5597,3.5653,3.5655,3.5657,0,0,0,0,0,0,0,0,0,0,0,0,0,3.5442,3.5444,3.5537,3.5537,3.5538,3.559,3.5591,3.5592,3.5599,3.5598,3.5598,3.5597,3.5653,3.5655,3.5657,0,0,0,0,0,0,0,0,0,0,0,0,0,3.5488,3.5444,3.5537,3.5548,3.5549,3.559,3.5591,3.5592,3.5599,3.5598,3.5597,3.5597,3.5652,3.5655,3.5658,3.5691,0,0,3.5667,3.5668,0,0,0,0,0,0,0,0,3.5485,3.5491,3.5546,3.5547,3.5549,3.5587,3.5578,3.5625,3.5599,3.558,3.5597,3.5596,3.5632,3.5636,3.5648,3.5694,3.5696,3.5667,3.5669,3.567,3.5671,0,0,0,0,0,0,0,3.5482,3.5489,3.5558,3.5546,3.5548,3.5551,3.5556,3.5587,3.561,3.5582,3.5582,3.5589,3.5633,3.5645,3.565,3.5697,3.5667,3.5669,3.5671,3.5672,3.5773,3.5774,0,0,0,0,0,0,3.5477,3.5486,3.5556,3.556,3.5515,3.5553,3.5559,3.5576,3.5609,3.5614,3.5589,3.5589,3.5641,3.5646,3.5652,3.5693,3.567,3.5673,3.5674,3.5772,3.5773,3.5774,0,0,0,0,0,0,3.5475,3.5483,3.5554,3.5523,3.5532,3.5555,3.5574,3.5577,3.559,3.5615,3.5619,3.5598,3.564,3.5647,3.5681,3.5695,3.5674,3.5677,3.5771,3.5772,3.5774,3.5776,0,0,0,0,0,0,3.5472,3.5482,3.5495,3.5523,3.5534,3.5582,3.5575,3.5579,3.5595,3.5595,3.5624,3.5628,3.564,3.5677,3.5684,3.5699,3.5679,3.577,3.5772,3.5773,3.5775,3.5777,3.5779,0,0,0,0,0,3.5468,3.5493,3.5495,3.5504,3.555,3.5583,3.5589,3.5602,3.5596,3.5609,3.5625,3.5627,3.5692,3.568,3.5688,3.5704,3.5769,3.5771,3.5773,3.5774,3.5777,3.5779,0,0,0,0,0,0,3.5465,3.5497,3.55,3.5534,3.5556,3.5584,3.5601,3.5605,3.5629,3.5628,3.5643,3.565,3.5683,3.5697,3.5683,3.5739,3.573,3.5734,3.5728,3.5731,3.5733,3.5729,3.5681,0,0,0,0,0,3.5469,3.5493,3.5519,3.5547,3.5558,3.5578,3.5593,3.5601,3.5624,3.5633,3.5652,3.5674,3.57,3.5716,3.5741,3.5777,3.5784,3.5792,3.5795,3.5796,3.5799,3.582,3.5824,3.5781,3.5781,3.5781,0,0,3.5476,3.5496,3.551,3.5547,3.5565,3.559,3.5585,3.5611,3.563,3.5637,3.567,3.5685,3.5711,3.5746,3.5762,3.5759,3.5813,3.5799,3.58,3.5802,3.5822,3.5826,3.583,3.5782,3.5782,3.5782,0,0,3.5502,3.5519,3.5545,3.5563,3.5589,3.5603,3.5609,3.5637,3.5647,3.568,3.5686,3.5708,3.5752,3.577,3.5786,3.5819,3.5822,3.5827,3.5839,3.5859,3.5862,3.5865,3.5877,3.5881,3.583,3.583,3.583,0,3.5507,3.5544,3.5557,3.5583,3.56,3.5607,3.5633,3.565,3.5684,3.5695,3.5691,3.5746,3.5764,3.5804,3.5812,3.5824,3.5832,3.5823,3.586,3.5863,3.5866,3.5878,3.5882,3.583,3.583,3.583,3.583,0,3.5549,3.5575,3.5593,3.5625,3.5643,3.5669,3.5687,3.5704,3.5711,3.5724,3.5758,3.5781,3.581,3.5821,3.5828,3.5861,3.5858,3.5857,3.5849,3.5871,3.5882,3.5886,3.5831,3.5831,3.5831,3.5831,0,0,3.5573,3.5613,3.5619,3.5634,3.5665,3.5685,3.5712,3.5741,3.5755,3.5779,3.5801,3.5838,3.5838,3.5855,3.5864,3.5881,3.5907,3.5878,3.5879,3.5882,3.5945,3.5946,3.595,3.5909,3.591,3.5911,3.5943,0,3.5602,3.5649,3.5663,3.5703,3.5727,3.5735,3.5758,3.578,3.5794,3.5816,3.5832,3.5858,3.5855,3.5865,3.5883,3.59,3.5919,3.5898,3.5931,3.5932,3.5923,3.5956,3.5957,3.5986,3.5947,3.5948,3.5949,0,3.5642,3.5666,3.5708,3.5736,3.5747,3.5767,3.5795,3.5817,3.5842,3.5851,3.587,3.5878,3.5907,3.5898,3.5937,3.5922,3.5937,3.5947,3.5949,3.5952,3.5941,3.596,3.5995,3.5999,3.5956,3.5955,3.5955,0,3.5655,3.5698,3.5729,3.5741,3.5775,3.5789,3.5804,3.5828,3.5845,3.5869,3.588,3.5908,3.5923,3.5944,3.596,3.5952,3.5998,3.5991,3.6007,3.6006,3.6015,3.6015,3.6053,3.6026,3.6026,3.6026,3.6026,0,3.5685,3.571,3.5735,3.5754,3.5783,3.5799,3.5827,3.5842,3.5864,3.5886,3.5895,3.5916,3.5935,3.5959,3.5972,3.6003,3.601,3.6018,3.602,3.6016,3.6015,3.6026,3.6024,3.6027,3.6027,3.6026,3.6026,0,3.5704,3.5721,3.5755,3.5785,3.5793,3.5813,3.5838,3.5857,3.5871,3.59,3.5907,3.593,3.5958,3.5976,3.6012,3.6021,3.6055,3.6057,3.6046,3.6047,3.6062,3.606,3.6108,3.6115,3.6083,3.6084,3.6084,0,3.5722,3.5741,3.5773,3.5788,3.5803,3.5828,3.5845,3.5862,3.5879,3.591,3.5925,3.5954,3.5978,3.6023,3.6043,3.6071,3.6074,3.6089,3.6078,3.6073,3.6074,3.6072,3.6074,3.609,3.6091,3.6091,3.6091,0,3.5751,3.5759,3.5783,3.5811,3.5831,3.5853,3.5876,3.5888,3.5909,3.5928,3.5957,3.5976,3.6013,3.6041,3.6071,3.6087,3.6092,3.6094,3.6099,3.6095,3.6088,3.6092,3.605,3.6093,3.6093,3.6093,3.6092,3.6092,3.577,3.5788,3.5813,3.584,3.5859,3.588,3.5899,3.5916,3.594,3.5971,3.598,3.601,3.6036,3.6076,3.6092,3.6117,3.6115,3.6122,3.6124,3.6125,3.6125,3.6084,3.6122,3.6122,3.6122,3.6122,3.6122,0,3.58,3.5817,3.5841,3.5872,3.5894,3.5897,3.5923,3.594,3.5967,3.599,3.6013,3.6047,3.6075,3.6097,3.6126,3.6141,3.6145,3.6148,3.6147,3.6151,3.6126,3.6118,3.6145,3.6145,3.6145,3.6145,3.6145,3.6145,3.5818,3.5849,3.586,3.59,3.5917,3.5946,3.5961,3.598,3.5998,3.6035,3.6059,3.6073,3.6096,3.6127,3.6153,3.6159,3.6169,3.6172,3.6179,3.6155,3.6152,3.615,3.6143,3.6174,3.6174,3.6201,3.6202,3.6202]},{"header":{"parameterUnit":"m.s-1","parameterCategory":1,"la1":30.2991,"la2":30.254,"lo1":-89.0895,"lo2":-89.0444,"dy":0.0017,"dx":0.0017,"nx":28,"ny":28,"refTime":"2023-08-10T09:00:00:Z","depth":0,"parameterNumber":3,"parameterNumberName":"V-component_of_WINDS"},"data":[0,0,0,0,0,0,0,0,0,0,0,0,0,0,0,0,0,0,0,0,0,0,0,0,0,0,0,0,0,0,0,0,0,0,0,0,0,0,0,0,0,0,0,0,0,0,0,0,0,0,0,0,0,0,0,0,0,0,4.297,4.2971,0,4.3,4.3,4.3,4.3005,4.3004,4.3004,4.3004,4.303,4.3031,4.3032,0,0,0,0,0,0,0,0,0,0,0,0,0,4.2915,4.2916,4.297,4.2971,4.2971,4.2999,4.3,4.3,4.3005,4.3004,4.3004,4.3004,4.303,4.3031,4.3032,0,0,0,0,0,0,0,0,0,0,0,0,0,4.2941,4.2916,4.297,4.2977,4.2978,4.2999,4.3,4.3,4.3005,4.3004,4.3004,4.3004,4.303,4.3031,4.3032,4.3048,0,0,4.3037,4.3037,0,0,0,0,0,0,0,0,4.2939,4.2943,4.2975,4.2976,4.2977,4.2998,4.299,4.3016,4.3005,4.2994,4.3004,4.3004,4.302,4.3022,4.3028,4.305,4.3051,4.3037,4.3038,4.3038,4.3038,0,0,0,0,0,0,0,4.2937,4.2941,4.2982,4.2976,4.2977,4.2977,4.298,4.2995,4.3009,4.2995,4.2996,4.2999,4.302,4.3027,4.3029,4.3051,4.3037,4.3038,4.3039,4.3039,4.3087,4.3087,0,0,0,0,0,0,4.2935,4.294,4.2981,4.2983,4.2957,4.2978,4.2982,4.2992,4.3008,4.3011,4.3,4.2999,4.3024,4.3027,4.303,4.3049,4.3038,4.3039,4.304,4.3086,4.3087,4.3087,0,0,0,0,0,0,4.2934,4.2939,4.298,4.2961,4.2967,4.298,4.2991,4.2993,4.2999,4.3012,4.3014,4.3004,4.3024,4.3028,4.3044,4.305,4.304,4.3041,4.3086,4.3087,4.3087,4.3089,0,0,0,0,0,0,4.2932,4.2938,4.2945,4.2962,4.2968,4.2994,4.2991,4.2993,4.3002,4.3002,4.3017,4.3019,4.3024,4.3042,4.3045,4.3052,4.3042,4.3085,4.3086,4.3087,4.3088,4.309,4.3091,0,0,0,0,0,4.293,4.2944,4.2946,4.295,4.2977,4.2995,4.2998,4.3005,4.3003,4.3009,4.3017,4.3018,4.3049,4.3043,4.3047,4.3055,4.3085,4.3086,4.3087,4.3088,4.3089,4.3091,0,0,0,0,0,0,4.2926,4.2946,4.2948,4.2968,4.298,4.2996,4.3004,4.3007,4.3019,4.3018,4.3026,4.3029,4.3045,4.3051,4.3044,4.3071,4.3067,4.3068,4.3066,4.3068,4.3069,4.3066,4.3044,0,0,0,0,0,4.2928,4.2942,4.2958,4.2973,4.298,4.2991,4.2999,4.3004,4.3016,4.3021,4.303,4.3041,4.3053,4.3061,4.3072,4.3089,4.3092,4.3096,4.3098,4.3098,4.31,4.3109,4.3111,4.3091,4.3091,4.3091,0,0,4.2931,4.2943,4.2952,4.2973,4.2983,4.2996,4.2995,4.3009,4.3019,4.3022,4.3039,4.3046,4.3058,4.3075,4.3083,4.3081,4.3106,4.31,4.31,4.3101,4.311,4.3112,4.3114,4.3091,4.3091,4.3091,0,0,4.2943,4.2954,4.2969,4.2979,4.2994,4.3002,4.3005,4.3021,4.3026,4.3043,4.3046,4.3057,4.3078,4.3087,4.3094,4.311,4.3111,4.3113,4.3119,4.3128,4.313,4.3131,4.3137,4.3138,4.3115,4.3115,4.3115,0,4.2944,4.2966,4.2975,4.299,4.2999,4.3004,4.3018,4.3027,4.3045,4.305,4.3048,4.3075,4.3084,4.3103,4.3107,4.3112,4.3116,4.3112,4.3129,4.313,4.3132,4.3137,4.3139,4.3115,4.3115,4.3115,4.3115,0,4.2967,4.2982,4.2991,4.301,4.302,4.3034,4.3044,4.3053,4.3057,4.3064,4.3081,4.3092,4.3106,4.3111,4.3114,4.313,4.3128,4.3128,4.3123,4.3134,4.3139,4.3141,4.3115,4.3115,4.3115,4.3115,0,0,4.2977,4.3002,4.3005,4.3013,4.3031,4.3042,4.3056,4.3071,4.3078,4.3091,4.3102,4.312,4.3119,4.3127,4.3132,4.314,4.3151,4.3138,4.3138,4.314,4.3169,4.3169,4.3172,4.3152,4.3153,4.3153,4.3168,0,4.2991,4.3018,4.3027,4.3048,4.3062,4.3067,4.3079,4.309,4.3097,4.3109,4.3116,4.3129,4.3127,4.3132,4.3141,4.3148,4.3157,4.3147,4.3162,4.3162,4.3158,4.3174,4.3175,4.3188,4.317,4.317,4.317,0,4.3011,4.3025,4.3049,4.3065,4.3071,4.3082,4.3096,4.3108,4.3121,4.3125,4.3135,4.3139,4.3152,4.3148,4.3166,4.3159,4.3165,4.317,4.3171,4.3172,4.3167,4.3176,4.3193,4.3195,4.3174,4.3173,4.3173,0,4.3016,4.3041,4.3058,4.3065,4.3085,4.3092,4.31,4.3113,4.3122,4.3134,4.3139,4.3153,4.316,4.3169,4.3176,4.3173,4.3194,4.319,4.3197,4.3197,4.3201,4.3201,4.3219,4.3206,4.3206,4.3206,4.3206,0,4.3031,4.3045,4.3061,4.3071,4.3087,4.3096,4.3111,4.3119,4.313,4.3142,4.3146,4.3157,4.3165,4.3177,4.3182,4.3196,4.3199,4.3203,4.3204,4.3202,4.3202,4.3206,4.3205,4.3207,4.3206,4.3206,4.3206,0,4.3039,4.305,4.3069,4.3087,4.3091,4.3102,4.3116,4.3126,4.3133,4.3148,4.3151,4.3163,4.3176,4.3185,4.3201,4.3205,4.322,4.3221,4.3216,4.3217,4.3224,4.3223,4.3246,4.3249,4.3233,4.3233,4.3234,0,4.3048,4.3059,4.3078,4.3086,4.3095,4.3109,4.3118,4.3128,4.3137,4.3152,4.316,4.3174,4.3186,4.3207,4.3216,4.3228,4.3229,4.3236,4.3231,4.3229,4.3229,4.3229,4.323,4.3237,4.3237,4.3237,4.3237,0,4.3062,4.3067,4.3081,4.3097,4.3108,4.3121,4.3133,4.314,4.3151,4.3161,4.3175,4.3185,4.3202,4.3216,4.3229,4.3236,4.3238,4.3239,4.3242,4.324,4.3237,4.3238,4.3219,4.3238,4.3238,4.3238,4.3238,4.3238,4.307,4.308,4.3096,4.3111,4.3122,4.3133,4.3144,4.3153,4.3166,4.3182,4.3186,4.3201,4.3213,4.3232,4.3239,4.325,4.3249,4.3253,4.3253,4.3254,4.3254,4.3235,4.3253,4.3253,4.3253,4.3253,4.3253,0,4.3084,4.3095,4.3109,4.3127,4.3139,4.3142,4.3155,4.3165,4.3178,4.319,4.3202,4.3219,4.3232,4.3242,4.3256,4.3262,4.3264,4.3266,4.3265,4.3267,4.3255,4.3251,4.3264,4.3264,4.3264,4.3264,4.3264,4.3264,4.3093,4.3111,4.3118,4.314,4.315,4.3166,4.3174,4.3184,4.3194,4.3213,4.3224,4.3231,4.3242,4.3257,4.3269,4.3271,4.3276,4.3277,4.328,4.3269,4.3267,4.3266,4.3263,4.3278,4.3278,4.3291,4.3291,4.3291]}]]